User: anonymous   Login
Location: Melizzano
(41.1500°N, 14.5000°E)
Time: 13:18:36
(UTC+00:00)
Language:

Cosmos 1503 Rocket - Orbit

View from above orbital plane
View from above orbital plane
View from above satellite
View from above satellite

Ground track
Ground track

The orbit data is extracted from the following two-line orbital elements,

1 14402U 83103B   21211.90353992  .00000071  00000-0  33194-4 0  9995
2 14402  74.0466  12.9629 0027251 205.7367 154.2432 14.36021951978317
Epoch (UTC): 30 July 2021 21:41:05
Eccentricity: 0.0027251
inclination: 74.0466°
perigee height: 752 km
apogee height: 791 km
right ascension of ascending node: 12.9629°
argument of perigee: 205.7367°
revolutions per day: 14.36021951
mean anomaly at epoch: 154.2432°
orbit number at epoch: 97831

The dashed part of the orbit path shows where the satellite is in the earth's shadow,  

DLR